Rochester, NY

7:15 PM EDT on July 24, 2017 (GMT -0400)
Greater Rochester International

Weather History for KROC - November, 2014

Change the Weather History Date:

Monday, November 17, 2014

  Actual Average Record
Temperature  
Mean Temperature 31 °F 40 °F  
Max Temperature 36 °F 48 °F 72 °F (1931)
Min Temperature 26 °F 33 °F 15 °F (1933)
Degree Days  
Heating Degree Days 34 25  
Month to date heating degree days 392 377  
Since 1 July heating degree days 889 1010  
Cooling Degree Days 0 0  
Month to date cooling degree days 0 0  
Year to date cooling degree days 542 539  
Moisture  
Dew Point 30 °F    
Average Humidity 89    
Maximum Humidity 100    
Minimum Humidity 78    
Precipitation  
Precipitation 0.36 in 0.10 in 2.01 in (1890)
Month to date precipitation 1.80 1.63  
Year to date precipitation 30.05 30.33  
Snow  
Snow 2.50 in 0.20 in 7.80 in (1920)
Month to date snowfall 2.9 2.7  
Since 1 July snowfall 2.9 2.8  
Since 1 September snowfall 2.9 2.8  
Snow Depth T in    
Sea Level Pressure  
Sea Level Pressure 29.70 in    
Wind  
Wind Speed 8 mph (South)    
Max Wind Speed 26 mph    
Max Gust Speed 37 mph    
Visibility 3 miles    
Events Fog , Rain , Snow    
T = Trace of Precipitation, MM = Missing Value Source: NWS Daily Summary

Daily Weather History Graph

Daily Weather History Graph

Search for Another Location

Airport or City:

Trip Planner

Search our weather history database for the weather conditions in past years. The results will help you decide how hot, cold, wet, or windy it might be!

Date:

Astronomy

Nov. 17, 2014 Rise Set
Actual Time 7:05 AM EST 4:44 PM EST
Civil Twilight 6:35 AM EST 5:15 PM EST
Nautical Twilight 6:00 AM EST 5:50 PM EST
Astronomical Twilight 5:26 AM EST 6:23 PM EST
Moon 1:58 AM EST (11/17) 2:14 PM EST (11/17)
Length of Visible Light 10h 40m
Length of Day
9h 39m
Waning Crescent, 23% of the Moon is Illuminated
Nov 17
Waning Crescent
Nov 22
New
Nov 29
First Quarter
Dec 6
Full
Dec 14
Last Quarter

Hourly Weather History & Observations

Time (EST) Temp. Windchill Dew Point Humidity Pressure Visibility Wind Dir Wind Speed Gust Speed Precip Events Conditions
12:14 AM 36.0 °F 33.3 °F 30.9 °F 82% 29.96 in 5.0 mi SSE 3.5 mph - 0.00 in Rain , Snow Light Snow
12:46 AM 34.0 °F 31.0 °F 32.0 °F 92% 29.94 in 2.0 mi SSE 3.5 mph - 0.01 in Snow Light Snow
12:54 AM 34.0 °F 31.0 °F 32.0 °F 92% 29.97 in 2.0 mi SE 3.5 mph - 0.02 in Snow Light Snow
12:56 AM 34.0 °F 31.0 °F 32.0 °F 92% 29.94 in 1.8 mi SE 3.5 mph - 0.00 in Snow Light Snow
1:25 AM 33.1 °F 28.7 °F 32.0 °F 96% 29.93 in 1.2 mi SE 4.6 mph - 0.01 in Snow Light Snow
1:54 AM 33.1 °F 28.7 °F 32.0 °F 96% 29.94 in 1.2 mi SE 4.6 mph - 0.03 in Snow Light Snow
2:06 AM 33.1 °F 28.7 °F 32.0 °F 96% 29.91 in 1.2 mi SE 4.6 mph - 0.00 in Snow Light Snow
2:26 AM 33.1 °F 27.7 °F 32.0 °F 96% 29.91 in 2.0 mi SE 5.8 mph - 0.01 in Snow Light Snow
2:54 AM 34.0 °F 28.0 °F 32.0 °F 92% 29.93 in 4.0 mi SE 6.9 mph - 0.01 in Snow Light Snow
3:33 AM 34.0 °F 28.8 °F 32.0 °F 92% 29.87 in 2.0 mi ESE 5.8 mph - 0.00 in Snow Light Snow
3:54 AM 33.8 °F 28.6 °F 32.0 °F 93% 29.85 in 2.5 mi ESE 5.8 mph - N/A Snow Light Snow
4:04 AM 33.1 °F 26.9 °F 32.0 °F 96% 29.84 in 3.0 mi ESE 6.9 mph - 0.00 in Snow Light Snow
4:54 AM 34.0 °F 28.0 °F 32.0 °F 92% 29.83 in 5.0 mi SE 6.9 mph - 0.00 in Snow Light Snow
5:54 AM 34.0 °F 28.8 °F 32.0 °F 92% 29.82 in 6.0 mi SE 5.8 mph - 0.00 in   Overcast
6:30 AM 34.0 °F 29.8 °F 32.0 °F 92% 29.76 in 3.0 mi ESE 4.6 mph - 0.00 in Snow Light Snow
6:50 AM 33.8 °F 29.6 °F 32.0 °F 93% 29.77 in 1.5 mi SE 4.6 mph - 0.00 in Snow Light Snow
6:54 AM 33.1 °F 26.9 °F 32.0 °F 96% 29.79 in 1.5 mi SE 6.9 mph - 0.01 in Snow Light Snow
7:33 AM 33.1 °F 27.7 °F 32.0 °F 96% 29.74 in 0.8 mi SE 5.8 mph - 0.02 in Snow Light Snow
7:54 AM 33.1 °F 28.7 °F 32.0 °F 96% 29.77 in 0.5 mi SE 4.6 mph - 0.03 in Fog , Snow Snow
8:52 AM 33.8 °F 30.8 °F 32.0 °F 93% 29.71 in 0.5 mi ESE 3.5 mph - 0.06 in Fog , Snow Snow
8:54 AM 33.1 °F 30.0 °F 32.0 °F 96% 29.73 in 0.5 mi SE 3.5 mph - 0.07 in Fog , Snow Snow
9:29 AM 33.1 °F 27.7 °F 32.0 °F 96% 29.67 in 0.5 mi SE 5.8 mph - 0.02 in Fog , Snow Snow
9:52 AM 33.8 °F 29.6 °F 32.0 °F 93% 29.66 in 0.8 mi ESE 4.6 mph - 0.04 in Snow Light Snow
9:54 AM 33.1 °F 28.7 °F 32.0 °F 96% 29.68 in 0.8 mi ESE 4.6 mph - 0.04 in Snow Light Snow
10:30 AM 33.1 °F 28.7 °F 32.0 °F 96% 29.63 in 1.0 mi SE 4.6 mph - 0.03 in Snow Light Snow
10:54 AM 33.1 °F 30.0 °F 32.0 °F 96% 29.64 in 1.0 mi SE 3.5 mph - 0.03 in Snow Light Snow
11:18 AM 33.1 °F - 32.0 °F 96% 29.60 in 0.8 mi Calm Calm - 0.02 in Snow Light Snow
11:54 AM 33.1 °F - 32.0 °F 96% 29.59 in 0.8 mi Calm Calm - 0.04 in Snow Light Snow
12:19 PM 33.1 °F - 33.1 °F 100% 29.54 in 1.0 mi Calm Calm - 0.01 in Snow Light Snow
12:54 PM 34.0 °F - 33.1 °F 96% 29.55 in 1.2 mi Calm Calm - 0.03 in Snow Light Snow
1:20 PM 34.0 °F - 32.0 °F 92% 29.51 in 2.5 mi Calm Calm - 0.00 in Snow Light Snow
1:32 PM 34.0 °F - 33.1 °F 96% 29.50 in 1.5 mi Calm Calm - 0.00 in Snow Light Snow
1:54 PM 34.0 °F 28.8 °F 32.0 °F 92% 29.54 in 1.8 mi WSW 5.8 mph - 0.01 in Snow Light Snow
2:54 PM 34.0 °F 28.0 °F 33.1 °F 96% 29.53 in 2.5 mi WSW 6.9 mph - 0.01 in Snow Light Snow
3:32 PM 34.0 °F 27.2 °F 33.1 °F 96% 29.51 in 3.0 mi WSW 8.1 mph - 0.00 in Snow Light Snow
3:54 PM 34.0 °F 28.0 °F 33.1 °F 96% 29.55 in 3.0 mi WSW 6.9 mph - 0.00 in Snow Light Snow
4:54 PM 35.1 °F 29.3 °F 33.1 °F 92% 29.56 in 6.0 mi WSW 6.9 mph - 0.01 in Rain Light Rain
5:54 PM 35.1 °F 26.4 °F 33.1 °F 92% 29.58 in 10.0 mi West 12.7 mph - 0.00 in Rain Light Rain
6:12 PM 35.1 °F 26.4 °F 32.0 °F 89% 29.56 in 10.0 mi West 12.7 mph - 0.00 in Rain Light Rain
6:54 PM 34.0 °F 25.0 °F 30.0 °F 85% 29.60 in 10.0 mi West 12.7 mph 23.0 mph 0.00 in Snow Light Snow
7:54 PM 34.0 °F 25.0 °F 28.0 °F 79% 29.60 in 8.0 mi West 12.7 mph - 0.00 in Snow Light Snow
8:34 PM 33.1 °F 21.9 °F 28.0 °F 82% 29.59 in 2.5 mi West 18.4 mph 25.3 mph 0.00 in Snow Light Snow
8:54 PM 32.0 °F 20.8 °F 27.0 °F 82% 29.61 in 2.5 mi West 17.3 mph 25.3 mph 0.00 in Snow Light Snow
9:12 PM 32.0 °F 20.5 °F 27.0 °F 82% 29.59 in 5.0 mi West 18.4 mph 24.2 mph 0.00 in Snow Light Snow
9:24 PM 32.0 °F 22.1 °F 28.0 °F 85% 29.60 in 2.0 mi West 13.8 mph 23.0 mph 0.00 in Snow Light Snow
9:30 PM 32.0 °F 21.2 °F 28.0 °F 85% 29.60 in 2.0 mi West 16.1 mph 25.3 mph 0.00 in Snow Light Snow
9:36 PM 30.9 °F 19.4 °F 28.9 °F 92% 29.61 in 2.0 mi West 17.3 mph 29.9 mph 0.01 in Snow Light Snow
9:54 PM 30.9 °F 18.4 °F 27.0 °F 85% 29.65 in 2.0 mi West 20.7 mph 28.8 mph 0.01 in Snow Light Snow
10:06 PM 30.9 °F 19.1 °F 27.0 °F 85% 29.62 in 1.5 mi West 18.4 mph 28.8 mph 0.00 in Snow Light Snow
10:38 PM 30.0 °F 17.2 °F 26.1 °F 85% 29.62 in 2.0 mi West 20.7 mph 27.6 mph 0.00 in Snow Light Snow
10:54 PM 28.9 °F 16.1 °F 24.1 °F 82% 29.66 in 2.0 mi West 19.6 mph 26.5 mph 0.00 in Snow Light Snow
11:16 PM 28.0 °F 16.5 °F 25.0 °F 88% 29.64 in 2.5 mi WNW 15.0 mph - 0.00 in Snow Light Snow
11:23 PM 28.0 °F 14.9 °F 19.9 °F 72% 29.64 in 4.0 mi West 19.6 mph 24.2 mph 0.00 in Snow Light Snow
11:26 PM 28.0 °F 15.3 °F 19.0 °F 69% 29.64 in 9.0 mi West 18.4 mph - 0.00 in Snow Light Snow
11:54 PM 27.0 °F 12.2 °F 14.0 °F 58% 29.68 in 8.0 mi West 24.2 mph 36.8 mph 0.00 in Snow Light Snow